Погода в Новониколаевке

Украина / Днепропетровская область     48°33′24″N   34°22′53″E
темп.,
°C
ветер,
м/с
пор.,
м/с
влажн.,
%
обл.,
%
осадки,
мм/ч
давл.,
гПа
погр.,
м
19 сентября, вс
вс1900:00+18ююз5105881 0.1 1008496
03:00+15ююз2587100 6.6 1008216
06:00+16зюз249299 0.1 1008197
09:00+17зсз347445 0.1 1008448
12:00+21зсз344839 0.0 10081420
15:00+23з453854 0.0 10072189
18:00+20сз245099 0.2 1007122
21:00+17зюз475890 0.5 1008189
20 сентября, пн
пн2000:00+15юз22697 0.0 100838
03:00+14сз468099 0.0 1008356
06:00+12з5872100 0.0 1009605
09:00+12з686046 0.0 10101039
12:00+14з684991 0.0 10101489
15:00+14з685390 0.0 10111425
18:00+13з5856100 0.0 10111459
21:00+11з5973100 0.0 1013759
21 сентября, вт
вт2100:00+11з4872100 0.0 1013820
03:00+11з476798 0.0 1013806
06:00+9з577388 0.0 1014762
09:00+9з5759100 0.0 10141213
12:00+11з6852100 0.0 10141568
15:00+11зсз786098 0.0 10141245
18:00+7з6981100 0.1 1015807
21:00+7з6978100 0.1 1016850
22 сентября, ср
ср2200:00+7зсз6982100 0.1 1016904
03:00+6зсз5882100 0.2 1015875
06:00+6зсз5785100 0.3 1015731
09:00+6з4685100 0.7 1015714
12:00+7зсз5680100 0.2 1015864
15:00+7зсз5680100 0.3 1015844
18:00+6зсз4686100 0.1 1015632
21:00+6з3487100 0.1 1015593
23 сентября, чт
чт2300:00+6з3486100 0.1 1014541
03:00+6сз2387100 0.1 1014505
06:00+6з1287100 0.1 1013264
09:00+7зсз2386100 0.3 1013313
12:00+7зсз3482100 0.3 1013541
15:00+8ссз2273100 0.4 1013613
18:00+8ссз227298 0.3 1013536
21:00+7сз3582100 0.3 1013251